User: anonymous   Login
Location: Wawayanda State Park
(41.1833°N, 74.4333°W)
Time: 07:09:31
(UTC-04:00)
Language:

Landsat 7 - Orbit

View from above orbital plane
View from above orbital plane
View from above satellite
View from above satellite

Ground track
Ground track

The orbit data is extracted from the following two-line orbital elements,

1 25682U 99020A   17149.79100762 +.00000135 +00000-0 +40020-4 0  9996
2 25682 098.2114 221.2068 0001287 084.5489 275.5851 14.57106372963914
Epoch (UTC): 29 May 2017 18:59:03
Eccentricity: 0.0001287
inclination: 98.2114°
perigee height: 701 km
apogee height: 703 km
right ascension of ascending node: 221.2068°
argument of perigee: 84.5489°
revolutions per day: 14.57106372
mean anomaly at epoch: 275.5851°
orbit number at epoch: 96391

The dashed part of the orbit path shows where the satellite is in the earth's shadow,  

DLR